Find Kosmos-1058

NORAD ID: 11135 Int'l Des: 1978-109 Owner: GUKOSR Country: SU operational
LEOCIRCULAR

Live-Position

3D-Globus wird geladen...

Über Kosmos-1058

Beschreibung wird geladen...

Nächste Überflüge

Passes for default location (London). Set your location on the main map for personalized predictions.

Höhenverlauf

Loading altitude history...

Zweizeiliger Elementsatz

1 11135U 78109H 26104.52339920 .00000011 00000-0 19893-3 0 9997
2 11135 74.0133 124.2134 0036778 335.2798 178.6692 12.39502510142774
Epoch: 14. Apr. 2026 • Age: 6 hours

Aktueller Status

Höhe 1540.5 km
Geschwindigkeit 7.09 km/s
Subsatellitenpunkt 27.01°N, 177.19°E
Startdatum 5. Dez. 1978
Alter 47.3 years
Typ other

Technische Details

Klassifizierung Payload
Masse 60.00 kg
Trockenmasse 60.00 kg
Gesamtmasse 60.00 kg
Länge 0.80 m
Durchmesser 0.80 m
Spannweite 0.80 m
Form Poly
Hersteller NPOPM
Bus-Typ Strela-1 11F625
Phasenstatus In Orbit
Besitzer/Staat GUKOSR/SU

Most Searched